Back to catalog

STARLINK-32888

AliveCommunicationsVLEO
NORAD 62966·PAYLOAD·🇺🇸 United States

Launched Feb 11, 2025 from Vandenberg Space Force Base

Loading…

Next Passes (next 24 hours)

TLE

FreshSource: CelesTrak SupGP

Epoch: Sep 14, 2026, 22:45 UTC

1 62966C 25029U   26257.94840278  .00040429  00000+0  11947-2 0  2570
2 62966  53.1576  71.5851 0001218  82.8857 120.5572 15.34365632    16

Track STARLINK-32888 in real time with AllMySat

Download on the App Store